Home   Weather   Valencia   Past weeks

Flag for Spain Past Weather in Valencia, Spain — Yesterday and Last 2 Weeks

Now
45 °F

Light rain. Passing clouds.


Feels Like: 39 °F
Forecast: 49 / 53 °F
Wind: 12 mph from Northwest

Location: Valencia / Aeropuerto

Current Time: Jan 20, 2017 at 7:22:11 pm

Latest Report: Jan 20, 2017 at 6:30 pm


Visibility: N/A

Pressure: 30.04 "Hg

Humidity: 93%

Dew Point: 43 °F

Location of ValenciaLocation

Past Weather in Valencia — Graph

°F

Valencia Temperature Yesterday

Maximum temperature yesterday: 48 °F (at 9:00 am)
Minimum temperature yesterday: 36 °F (at 2:00 am)
Average temperature yesterday: 43 °F

High & Low Weather Summary for the Past Weeks

 TemperatureHumidityPressure
High72 °F (Jan 12, 4:00 pm)100% (Jan 5, 11:30 pm)30.45 "Hg (Jan 5, 11:30 pm)
Low30 °F (Jan 18, 8:00 am)19% (Jan 17, 8:00 pm)29.89 "Hg (Jan 10, 2:00 pm)
Average49 °F65%30.17 "Hg
* Reported Jan 5 6:00 pm — Jan 20 6:00 pm, Valencia, Weather by CustomWeather, © 2017

Note: Actual official high and low records may vary slightly from our data, if they occured in-between our weather recording intervals... More about our weather records

Advertising

Valencia Weather History for the Previous 24 Hours

Scroll right to see more
 ConditionsComfort  
Time TempWeatherWind HumidityBarometerVisibility
6:00 pm
Fri, Jan 20
45 °FLight rain. Overcast.14 mph100%30.04 "HgN/A
5:30 pm46 °FLight rain. Partly sunny.14 mph93%30.04 "HgN/A
5:00 pm45 °FLight rain. Overcast.13 mph100%30.04 "HgN/A
4:30 pm45 °FLight rain. Overcast.12 mph100%30.04 "HgN/A
4:00 pm45 °FRain. Overcast.12 mph100%30.04 "HgN/A
3:30 pm45 °FLight rain. Partly sunny.14 mph100%30.04 "Hg6 mi
3:00 pm45 °FRain. Partly sunny.13 mph100%30.04 "Hg6 mi
2:30 pm45 °FRain. Partly sunny.13 mph100%30.04 "Hg6 mi
2:00 pm45 °FRain. Partly sunny.18 mph100%30.04 "HgN/A
1:30 pm45 °FRain. Partly sunny.13 mph100%30.04 "HgN/A
1:00 pm45 °FLight rain. Partly sunny.10 mph100%30.04 "HgN/A
12:30 pm45 °FHeavy rain. Partly sunny.7 mph100%30.07 "HgN/A
12:00 pm45 °FHeavy rain. Broken clouds.7 mph100%30.04 "HgN/A
11:30 am45 °FSevere thunderstorms. Cloudy.6 mph100%30.07 "Hg2 mi
11:20 am45 °FSevere thunderstorms. Partly sunny.7 mph100%30.07 "Hg4 mi
11:00 am46 °FThunderstorms. Partly sunny.9 mph87%30.04 "HgN/A
10:30 am46 °FThunderstorms. Partly sunny.10 mph87%30.04 "HgN/A
10:00 am46 °FPartly sunny.8 mph87%30.04 "HgN/A
9:30 am45 °FPartly sunny.9 mph93%30.01 "HgN/A
9:00 am45 °FBroken clouds.6 mph93%30.01 "HgN/A
8:30 am45 °FBroken clouds.7 mph93%30.01 "HgN/A
8:00 am45 °FPartly cloudy.7 mph100%30.01 "HgN/A
7:30 am46 °FPartly cloudy.7 mph87%30.01 "HgN/A
7:00 am45 °FLight rain. Partly cloudy.6 mph100%30.01 "HgN/A
6:30 am46 °FRain. Partly cloudy.3 mph100%30.01 "HgN/A
6:00 am46 °FLight rain. Partly cloudy.5 mph100%30.01 "Hg5 mi
5:30 am46 °FLight rain. Partly cloudy.6 mph100%30.01 "HgN/A
5:00 am45 °FPartly cloudy.7 mph100%29.98 "HgN/A
4:30 am43 °FPartly cloudy.8 mph100%30.01 "HgN/A
4:00 am45 °FLight rain. Partly cloudy.8 mph100%30.01 "Hg5 mi
3:30 am45 °FRain showers. Partly cloudy.10 mph100%30.01 "Hg4 mi
3:00 am46 °FRain showers. Partly cloudy.13 mph100%30.01 "Hg4 mi
2:30 am45 °FRain showers. Partly cloudy.1 mph100%30.01 "Hg5 mi
2:00 am43 °FRain showers. Partly cloudy.8 mph100%30.04 "Hg5 mi
1:30 am41 °FRain showers. Partly cloudy.9 mph100%30.04 "HgN/A
1:00 am43 °FRain showers. Partly cloudy.13 mph100%30.04 "Hg2 mi
12:30 am41 °FLots of rain. Partly cloudy.13 mph100%30.04 "Hg2 mi
12:00 am43 °FPartly cloudy.12 mph100%30.04 "HgN/A
11:47 pm
Thu, Jan 19
43 °FPartly cloudy.10 mph100%30.04 "HgN/A
11:00 pm45 °FThunderstorms. Partly cloudy.7 mph100%30.04 "Hg2 mi
10:35 pm45 °FThunderstorms. Partly cloudy.8 mph100%30.04 "Hg2 mi
10:00 pm43 °FThunderstorms. Partly cloudy.8 mph100%30.01 "Hg1 mi
9:30 pm41 °FLots of rain. Partly cloudy.14 mph100%30.04 "Hg1 mi
9:22 pm41 °FLots of rain. Partly cloudy.12 mph100%30.01 "Hg1 mi
9:00 pm45 °FRain. Partly cloudy.17 mph93%30.01 "Hg4 mi
8:30 pm48 °FLight rain. Partly cloudy.21 mph94%29.98 "Hg4 mi
8:00 pm48 °FRain. Partly cloudy.20 mph100%29.98 "Hg1 mi
7:30 pm46 °FRain. Partly cloudy.18 mph100%29.98 "Hg1 mi
7:00 pm45 °FThundershowers. Partly cloudy.14 mph100%29.98 "Hg1 mi
Weather by CustomWeather, © 2017

See weather overviewHow to use our weather pages